• In Czech Republic
  • List of Countries
  • For 7 days
  • Water Temperature
  • Satellite Maps
  • Weather Map
  • Weather Widgets
  • user-avatar
    Login

    Hourly Weather Dorofeevo

    Today, 25 April, Wednesday

    Time Temperature Precipitation Wind Pressure Humidity
    00:00 +3°C° 0 mm 2 mps 749 mmHg 58%
    01:00 +3°C° 0 mm 2 mps 748 mmHg 61%
    02:00 +3°C° 0 mm 2 mps 748 mmHg 64%
    03:00 +3°C° 0 mm 2 mps 747 mmHg 68%
    04:00 +3°C° 0 mm 2 mps 747 mmHg 70%
    05:00 +3°C° 0 mm 2 mps 747 mmHg 71%
    06:00 +3°C° 0 mm 2 mps 747 mmHg 72%
    07:00 +5°C° 0 mm 2 mps 747 mmHg 67%
    08:00 +8°C° 0 mm 2 mps 747 mmHg 63%
    09:00 +9°C° 0 mm 3 mps 747 mmHg 57%
    10:00 +10°C° 0.1 mm 3 mps 747 mmHg 59%
    11:00 +10°C° 0.1 mm 4 mps 747 mmHg 60%
    12:00 +11°C° 0.1 mm 4 mps 746 mmHg 61%
    13:00 +11°C° 0.1 mm 4 mps 746 mmHg 62%
    14:00 +12°C° 0.1 mm 4 mps 746 mmHg 62%
    15:00 +12°C° 0.1 mm 4 mps 745 mmHg 62%
    16:00 +12°C° 0.1 mm 3 mps 745 mmHg 64%
    17:00 +12°C° 0.1 mm 3 mps 745 mmHg 66%
    18:00 +12°C° 0.1 mm 3 mps 744 mmHg 67%
    19:00 +11°C° 0.2 mm 3 mps 744 mmHg 74%
    20:00 +10°C° 0.2 mm 3 mps 744 mmHg 80%
    21:00 +9°C° 0.2 mm 3 mps 744 mmHg 86%
    22:00 +9°C° 0.1 mm 3 mps 744 mmHg 88%
    23:00 +9°C° 0.1 mm 3 mps 744 mmHg 90%

    Tomorrow, 26 April, Thursday

    Time Temperature Precipitation Wind Pressure Humidity
    00:00 +9°C° 0.1 mm 3 mps 743 mmHg 92%
    01:00 +9°C° 0 mm 3 mps 743 mmHg 93%
    02:00 +8°C° 0 mm 2 mps 743 mmHg 94%
    03:00 +8°C° 0 mm 2 mps 743 mmHg 95%
    04:00 +8°C° 0 mm 2 mps 742 mmHg 95%
    05:00 +8°C° 0 mm 2 mps 742 mmHg 94%
    06:00 +8°C° 0 mm 2 mps 741 mmHg 94%
    07:00 +8°C° 0.3 mm 3 mps 741 mmHg 93%
    08:00 +9°C° 0.3 mm 3 mps 741 mmHg 91%
    09:00 +10°C° 0.3 mm 3 mps 740 mmHg 89%
    10:00 +10°C° 1.8 mm 3 mps 740 mmHg 89%
    11:00 +11°C° 1.8 mm 3 mps 739 mmHg 90%
    12:00 +11°C° 1.8 mm 3 mps 739 mmHg 90%
    13:00 +12°C° 0.5 mm 4 mps 739 mmHg 84%
    14:00 +14°C° 0.5 mm 5 mps 739 mmHg 78%
    15:00 +15°C° 0.5 mm 6 mps 739 mmHg 73%
    16:00 +14°C° 0.3 mm 6 mps 739 mmHg 72%
    17:00 +12°C° 0.3 mm 7 mps 739 mmHg 71%
    18:00 +12°C° 0.3 mm 7 mps 740 mmHg 70%
    19:00 +10°C° 0.1 mm 7 mps 741 mmHg 73%
    20:00 +9°C° 0.1 mm 7 mps 742 mmHg 76%
    21:00 +8°C° 0.1 mm 7 mps 743 mmHg 78%
    22:00 +7°C° 0 mm 6 mps 743 mmHg 78%
    23:00 +7°C° 0 mm 6 mps 744 mmHg 77%

    Day after tomorrow, 27 April, Friday

    Time Temperature Precipitation Wind Pressure Humidity
    00:00 +7°C° 0 mm 6 mps 745 mmHg 76%
    01:00 +6°C° 0 mm 5 mps 745 mmHg 78%
    02:00 +6°C° 0 mm 5 mps 746 mmHg 81%
    03:00 +5°C° 0 mm 4 mps 746 mmHg 83%
    04:00 +5°C° 0 mm 4 mps 747 mmHg 84%
    05:00 +5°C° 0 mm 4 mps 747 mmHg 85%
    06:00 +5°C° 0 mm 4 mps 748 mmHg 85%
    07:00 +7°C° 0 mm 4 mps 748 mmHg 79%
    08:00 +8°C° 0 mm 4 mps 749 mmHg 73%
    09:00 +11°C° 0 mm 4 mps 749 mmHg 67%
    10:00 +12°C° 0 mm 4 mps 749 mmHg 62%
    11:00 +13°C° 0 mm 4 mps 750 mmHg 56%
    12:00 +14°C° 0 mm 4 mps 750 mmHg 51%
    13:00 +15°C° 0 mm 4 mps 749 mmHg 49%
    14:00 +15°C° 0 mm 4 mps 749 mmHg 48%
    15:00 +17°C° 0 mm 4 mps 749 mmHg 47%
    16:00 +16°C° 0.1 mm 3 mps 749 mmHg 52%
    17:00 +14°C° 0.1 mm 3 mps 749 mmHg 57%
    18:00 +14°C° 0.1 mm 2 mps 749 mmHg 63%
    19:00 +13°C° 0.1 mm 2 mps 749 mmHg 68%
    20:00 +12°C° 0.1 mm 2 mps 749 mmHg 73%
    21:00 +10°C° 0.1 mm 2 mps 749 mmHg 78%
    22:00 +10°C° 0.2 mm 2 mps 749 mmHg 82%
    23:00 +9°C° 0.2 mm 2 mps 749 mmHg 85%

    28 April, Saturday

    Time Temperature Precipitation Wind Pressure Humidity
    00:00 +9°C° 0.2 mm 2 mps 749 mmHg 88%
    01:00 +8°C° 0.5 mm 2 mps 749 mmHg 90%
    02:00 +8°C° 0.5 mm 2 mps 749 mmHg 92%
    03:00 +8°C° 0.5 mm 3 mps 749 mmHg 94%
    04:00 +8°C° 0.3 mm 3 mps 749 mmHg 93%
    05:00 +8°C° 0.3 mm 3 mps 749 mmHg 92%
    06:00 +6°C° 0.3 mm 4 mps 749 mmHg 92%
    07:00 +8°C° 0 mm 4 mps 749 mmHg 85%
    08:00 +10°C° 0 mm 4 mps 750 mmHg 78%
    09:00 +11°C° 0 mm 4 mps 750 mmHg 72%
    10:00 +12°C° 0.1 mm 4 mps 751 mmHg 65%
    11:00 +13°C° 0.1 mm 4 mps 751 mmHg 58%
    12:00 +14°C° 0.1 mm 5 mps 751 mmHg 51%
    13:00 +15°C° 0.2 mm 5 mps 751 mmHg 50%
    14:00 +15°C° 0.2 mm 5 mps 751 mmHg 48%
    15:00 +15°C° 0.2 mm 5 mps 752 mmHg 47%
    16:00 +15°C° 0.1 mm 5 mps 752 mmHg 50%
    17:00 +14°C° 0.1 mm 4 mps 752 mmHg 53%
    18:00 +13°C° 0.1 mm 4 mps 752 mmHg 57%
    19:00 +12°C° 0 mm 3 mps 753 mmHg 62%
    20:00 +10°C° 0 mm 3 mps 753 mmHg 68%
    21:00 +9°C° 0 mm 2 mps 754 mmHg 74%
    22:00 +8°C° 0 mm 2 mps 754 mmHg 75%
    23:00 +8°C° 0 mm 2 mps 754 mmHg 77%

    29 April, Sunday

    Time Temperature Precipitation Wind Pressure Humidity
    00:00 +7°C° 0 mm 2 mps 755 mmHg 78%
    01:00 +7°C° 0 mm 2 mps 755 mmHg 79%
    02:00 +6°C° 0 mm 2 mps 755 mmHg 80%
    03:00 +6°C° 0 mm 2 mps 755 mmHg 81%
    04:00 +6°C° 0 mm 2 mps 755 mmHg 81%
    05:00 +6°C° 0 mm 2 mps 755 mmHg 80%
    06:00 +6°C° 0 mm 2 mps 755 mmHg 79%
    07:00 +8°C° 0 mm 2 mps 755 mmHg 73%
    08:00 +10°C° 0 mm 3 mps 755 mmHg 66%
    09:00 +12°C° 0 mm 3 mps 755 mmHg 60%
    10:00 +12°C° 0.6 mm 3 mps 755 mmHg 66%
    11:00 +12°C° 0.6 mm 4 mps 754 mmHg 72%
    12:00 +11°C° 0.6 mm 4 mps 753 mmHg 77%
    13:00 +13°C° 0.2 mm 4 mps 753 mmHg 75%
    14:00 +14°C° 0.2 mm 4 mps 752 mmHg 74%
    15:00 +15°C° 0.2 mm 4 mps 752 mmHg 72%
    16:00 +17°C° 0.2 mm 4 mps 751 mmHg 72%
    17:00 +17°C° 0.2 mm 4 mps 751 mmHg 72%
    18:00 +18°C° 0.2 mm 3 mps 751 mmHg 73%
    19:00 +16°C° 0 mm 3 mps 751 mmHg 78%
    20:00 +14°C° 0 mm 2 mps 751 mmHg 83%
    21:00 +12°C° 0 mm 2 mps 752 mmHg 88%
    22:00 +12°C° 0 mm 2 mps 752 mmHg 89%
    23:00 +10°C° 0 mm 3 mps 752 mmHg 90%

    30 April, Monday

    Time Temperature Precipitation Wind Pressure Humidity
    00:00 +9°C° 0 mm 3 mps 752 mmHg 91%
    01:00 +8°C° 0 mm 2 mps 753 mmHg 92%
    02:00 +8°C° 0 mm 2 mps 753 mmHg 93%
    03:00 +7°C° 0 mm 2 mps 753 mmHg 94%
    04:00 +7°C° 0 mm 2 mps 754 mmHg 93%
    05:00 +7°C° 0 mm 2 mps 754 mmHg 92%
    06:00 +7°C° 0 mm 2 mps 754 mmHg 91%
    07:00 +9°C° 0 mm 3 mps 754 mmHg 81%
    08:00 +10°C° 0 mm 3 mps 754 mmHg 72%
    09:00 +12°C° 0 mm 4 mps 754 mmHg 63%
    10:00 +13°C° 0 mm 4 mps 754 mmHg 57%
    11:00 +14°C° 0 mm 5 mps 754 mmHg 52%
    12:00 +15°C° 0 mm 5 mps 754 mmHg 47%
    13:00 +16°C° 0 mm 5 mps 754 mmHg 45%
    14:00 +16°C° 0 mm 5 mps 754 mmHg 43%
    15:00 +17°C° 0 mm 5 mps 754 mmHg 41%
    16:00 +17°C° 0 mm 4 mps 754 mmHg 43%
    17:00 +17°C° 0 mm 3 mps 754 mmHg 45%
    18:00 +17°C° 0 mm 2 mps 754 mmHg 48%
    19:00 +15°C° 0 mm 2 mps 754 mmHg 52%
    20:00 +13°C° 0 mm 2 mps 755 mmHg 56%
    21:00 +11°C° 0 mm 1 mps 755 mmHg 60%
    22:00 +10°C° 0 mm 1 mps 755 mmHg 63%
    23:00 +10°C° 0 mm 1 mps 755 mmHg 66%
    Show more